Regional Weather Roundup
Issued by NWS

Home | Current Version | Previous Version | Text Only | Print | Product List | Glossary On
Versions: 1 2 3 4 5 6 7 8 9 10 11 12 13 14 15 16 17 18 19 20 21 22 23 24 25 26 27 28 29 30 31 32 33 34 35 36 37 38 39 40 41 42 43 44 45 46 47 48 49 50
586
ASHW40 PHFO 220543
RWRHI

WEATHER ROUNDUP FOR HAWAII
NATIONAL WEATHER SERVICE HONOLULU HI
700 PM HST WED FEB 21 2018

THIS IS AN AUTOMATED REPORT THAT HAS NOT BEEN QUALITY CONTROLLED.

NOTE..."FAIR" INDICATES FEW OR NO CLOUDS BELOW 12,000 FEET WITH NO
SIGNIFICANT WEATHER AND/OR OBSTRUCTIONS TO VISIBILITY.

* - THESE SITES REPORT LIMITED FIELDS
# - BUOY DATA PROVIDED BY PACIFIC ISLANDS OCEAN OBSERVING SYSTEM.

HIZ001>004-220600-
KAUAI-NIIHAU-

CITY           SKY/WX    TMP DP  RH WIND       PRES   REMARKS
LIHUE APT      PTCLDY    74  71  91 NE6       30.03R
PORT ALLEN*    NOT AVBL
POIPU*         NOT AVBL
PRINCEVILLE*   NOT AVBL
KOKOLE POINT*  NOT AVBL
MOLOAA DAIRY*    N/A     72  70  94 SE3G12      N/A
WAIMEA HTS*      N/A     72  63  73 NE2         N/A
PUU OPAE*        N/A     64  61  88 E5          N/A
PUU LUA*       NOT AVBL
MAKAHA RIDGE*    N/A     66  64  94 CALM        N/A
$$

HIZ005>011-220600-
OAHU-

CITY           SKY/WX    TMP DP  RH WIND       PRES   REMARKS
HONOLULU       CLOUDY    78  66  66 E8        30.00R
KALAELOA       CLOUDY    75  71  87 E6        30.02R
KANEOHE MCB    MOCLDY    75  72  90 E7        30.00R
WHEELER FIELD  FAIR      73  66  80 CALM      30.05R
BELLOWS*       NOT AVBL
KAHUKU*        NOT AVBL
WHEELER*       NOT AVBL
WAIANAE HARBOR NOT AVBL
DILLINGHAM*    NOT AVBL
KAHUKU TRN*      N/A     73  70  88 NW2G14      N/A
KAWAILOA*        N/A     70  63  78 E3G12       N/A
KII*             N/A     73  70  88 E12         N/A
MAKUA RANGE*   NOT AVBL
OAHU FOREST NW   N/A     68  61  77 E12G20      N/A
SCHOFIELD BRK*   N/A     79  72  78 MISG        N/A
SCHOFIELD S*   NOT AVBL
WAIANAE VLY*     N/A     68  64  88 NW3         N/A
KUAOKALA*        N/A     72  57  60 NW1         N/A
HONOULIUULI*   NOT AVBL
MOKUOLOE IS*   NOT AVBL
PALEHUA*         N/A     64  61  88 NE8         N/A
WAIAWA PHB*    NOT AVBL
$$

HIZ012>013-220600-
MOLOKAI-

CITY           SKY/WX    TMP DP  RH WIND       PRES   REMARKS
MOLOKAI AIRPT  MOCLDY    75  69  81 SE9       30.03R
KALAUPAPA      NOT AVBL
MAKAPULAPAI*     N/A     73  70  88 E9G16       N/A
MOLOKAI 1*       N/A     72  70  94 CALM        N/A
PUU ALII*        N/A     75  70  85 E1          N/A
$$

HIZ016-220600-
KAHOOLAWE-

CITY           SKY/WX    TMP DP  RH WIND       PRES   REMARKS
KAHOOLAWE*     NOT AVBL
HAKIOAWA*        N/A     69  68  97 MISG      30.43R
HONOKANAIA*    NOT AVBL
KANELOA*         N/A     73  70  88 E13G24    30.07R
KEALIALALO*    NOT AVBL
LUA MAKIKA*    NOT AVBL
$$

HIZ014>015-220600-
LANAI-

CITY           SKY/WX    TMP DP  RH WIND       PRES   REMARKS
LANAI CITY     MOCLDY    70  66  88 E13       30.07R
LANAI 1*         N/A     70  66  88 E2G12       N/A
$$

HIZ017>028-220600-
MAUI-

CITY           SKY/WX    TMP DP  RH WIND       PRES   REMARKS
KAHULUI        PTCLDY    75  68  78 E6        30.00R
KAPALUA-W MAUI NOT AVBL
HANA AIRPORT   LGT RAIN  72  32  23 SE2       30.06R VSB 1/2
HANA*          NOT AVBL
HALEAKALA SUMM   N/A     41  39  93 S3          N/A
MAALAEA BAY*   NOT AVBL
HALEAKALA*     NOT AVBL
KAUPO GAP*     NOT AVBL
KULA 1*          N/A     52  50  92 E3          N/A
$$

HIZ023>026-220600-
BIG ISLAND OF HAWAII COAST AND LOWER SLOPES-

CITY           SKY/WX    TMP DP  RH WIND       PRES   REMARKS
KAILUA KONA    MOCLDY    77  66  68 N9        29.99R
HILO           CLOUDY    74  71  91 CALM      30.02R
HONOKAA*       NOT AVBL
KAWAIHAE MWT*  NOT AVBL
KAWAIHAE*        N/A     77 N/A N/A SE3       29.99S
SOUTH POINT*   NOT AVBL
UPOLU AIRPORT* NOT AVBL
KAMUELA*       CLOUDY    64  61  88 CALM      30.13R
HAKALAU*         N/A     52  52 100 S9          N/A
KALOKO-HONOKO*   N/A     75  68  78 NW6G12    29.99R
PALI 2*          N/A     64  61  88 W3          N/A
KEALAKOMO*       N/A     73  70  88 N5          N/A
KAUPULEHU*       N/A     70  66  88 SE6         N/A
KAPAPALA*        N/A     65  64  96 NW2         N/A
LOWER KAHUKU*    N/A     61  57  88 N2G9        N/A
PUHE CS*         N/A     75  70  83 SE1         N/A
PUHO CS*         N/A     74  69  86 SE1         N/A
PTA KEAMUKU*     N/A    N/A N/A N/A W3G9        N/A
WAIKOLOA*        N/A     70  64  83 SE3         N/A
$$

HIZ027>028-220600-
BIG ISLAND OF HAWAII INTERIOR AND SUMMMITS-

CITY           SKY/WX    TMP DP  RH WIND       PRES   REMARKS
BRADSHAW FIELD MOCLDY    55  54  94 W3        30.33R FOG
MK VISITOR CEN   N/A     45  41  87 SE5         N/A
MAUNA KEA*       N/A     30  30 100 SW1         N/A
MAUNA LOA*       N/A     41  36  81 MISG        N/A
MAUNA LOA 1*   NOT AVBL
PTA KIPUKA*      N/A     59  59 100 E2          N/A
PTA RANGE 17*    N/A     57  54  88 W9G16       N/A
PTA WEST*        N/A     61  59  94 W3          N/A
NENE CABIN*      N/A     52  50  93 E3G12       N/A
AHUMOA*          N/A     54  49  82 E5          N/A
PTA PORTABLE*  NOT AVBL
PUU MALI*        N/A     54 N/A N/A NE3         N/A
$$

HIC003-220600-
NORTHWEST ISLANDS-

CITY           SKY/WX    TMP DP  RH WIND       PRES   REMARKS
MIDWAY ISLAND  MOCLDY    66  61  82 NE10      30.19R
MIDWAY NOS*      N/A     66 N/A N/A MISG      30.18R
FRENCH FRIGATE NOT AVBL
$$

PHZ110>124-180-220600-
BUOY REPORTS

STATION/POSITION TIME  TEMP    WIND        PRES    WAVE   SWELL
                       AIR SEA DIR/SP/G            HT/PER HT/DIR
                 (UTC) (F)     (DEG/KT/KT) (MB)    (FT/S) (FT/D)
BUOY 51001       0520   77 78   50/ 14/ 17 1012.2
BUOY 51101       0450   72 75   90/  4/  6 1017.2R   9/14   8/310
BUOY 51100       NOT AVBL
BUOY 51002       0520   75 78   90/ 17/ 21 1014.8
BUOY 51003       0450   76 77   70/ 16/ 19 1013.9R   7/16   5/250
BUOY 51004       0520   77 77   90/ 14/ 17 1016.7
WAIMEA BAY#      NOT AVBL
MOKAPU POINT#    0504      75                N/A     6/10   2/ 50
LANAI#           NOT AVBL
BARBERS PT 2#    NOT AVBL
PAUWELA#         0500      76                N/A     8/ 9   5/320
HILO#            0527      76                N/A     7/ 9   3/ 70
KANEOHE BAY#     NOT AVBL
KANEOHE BAY 2#   NOT AVBL
HANALEI#         0522      76                N/A     8/15   5/300
KAHULUI HARBOR   0512   76 78   50/  3/  4 1015.9
HONOLULU HARBOR  0512   77 75   30/  3/  4 1015.9
PEARL HARBOR#    0500      76                N/A     2/ 8
KILO NALU        NOT AVBL
HILO HARBOR      0512   73 76  200/  4/  5 1016.4
MOKUOLOE         0436   74 77   90/  3/  7 1016.2R
NAWILIWILI       0512   74 77   30/  3/  6 1016.6
WHOTS BUOY       NOT AVBL
BUOY 51028       NOT AVBL
$$

......................KEY........................................
  SKY/WX - SKY CONDITIONS/PRESENT WEATHER
  TMP    - TEMPERATURE IN FAHRENHEIT
  DWPT   - DEWPOINT IN FAHRENHEIT
  RH     - RELATIVE HUMIDITY IN PERCENT
  WIND   - DIRECTION AND SPEED /MPH FOR ISLANDS...KTS FOR BUOYS/
  PRES   - MEAN SEA LEVEL PRESSURE IN INCHES OF HG
  VSB    - VISIBILITY IN MILES
  HX     - HEAT INDEX
  WCI    - WIND CHILL INDEX
  VRB    - VARIABLE WIND DIRECTION
  N/A    - NOT AVAILABLE




USA.gov is the U.S. government's official web portal to all federal, state and local government web resources and services.